FLOCK 2E'-19 (41777 NORAD) Tracking and Keplerian Element Data

This shows tracking and keplerian element data for the satellite.

Feedback or suggestion? Click here.




ElementValue
Catalog41777
NameFLOCK 2E'-19
Epoch Orbit9475
Epoch Day132.88719735
Epoch Year2018
RAAN137.0157
Inclination51.607
Eccentricity0.0002336
Argument of Perigee223.1762
Mean Anonmoly136.9083
Mean Motion16.43100745
Decay Rate0.13878815
L11 41777U 98067KP 18132.88719735 .13878815 12456-4 67790-3 0 9994
L22 41777 51.6070 137.0157 0002336 223.1762 136.9083 16.43100745 94754

Live tracking and technical data element details for FLOCK 2E'-19 (NORAD 41777). FLOCK 2E'-19 can be tracked NOW for your location showing map with azimuth and elevation plus other details from your city location.

Track the satellite on the map from your city or location and see movement details for azimuth, elevation, latitude, longitude, range, height, and movement on the map or in text.







IsCatalogInMostPopularTable: catalog: 41777, numindb: 133
Update: records affected: 1



GetName: 41777 FLOCK 2E'-19

Hit Count: updated at: Fri, 16 Nov 2018 03:05:20 GMT